Date String (YYYY-MM-DD hh:mm:ss) UTC,Instrument flags,absolute air pressure of the measurement (hPa),sample flow rate (lpm),inlet stack bypass flow (lpm),air temperature of the measurement (°C),ambient temperature measured by the external sensor (°C),aerosol sample conditioner tube jacket temperature (°C),OPC LED temperature (°C),internal box temperature (°C),relative humidity of the measurement (%),span deviation,mass concentration of particles derived from Lorenz-Mie calculation of OPC scattering (μg/m³),mass concentration of particles derived from Lorenz-Mie calculation of OPC scattering (μg/m³),mass concentration of particles derived from Lorenz-Mie calculation of OPC scattering (μg/m³)
DateTimeUTC,F1_M11,P_M11,Q1_M11,Q2_M11,T1_M11,T2_M11,T3_M11,T4_M11,T5_M11,U1_M11,ZSPAN_M11,X0_M11,X2_M11,X1_M11
2024-06-18 02:00:00,SystemResetWarning,0813.6,5.01,000.00,028.6,027.2,000.0,037.0,030.3,036.1,0000.0,0029.24,0008.13,0006.09
2024-06-18 02:01:00,SystemResetWarning,0813.6,5.01,000.00,028.7,027.6,000.0,037.0,030.5,036.0,0000.0,0029.45,0008.05,0006.08
2024-06-18 02:02:00,SystemResetWarning,0813.6,4.99,000.00,028.8,027.9,000.0,037.0,030.7,035.8,0000.0,0030.34,0008.04,0006.07
2024-06-18 02:03:00,SystemResetWarning,0813.6,5.00,000.00,028.9,028.2,000.0,037.1,030.8,035.3,0000.0,0030.48,0008.08,0006.07
2024-06-18 02:04:00,SystemResetWarning,0813.7,5.00,000.00,029.0,028.4,000.0,037.1,031.0,035.0,0000.0,0028.98,0008.06,0006.07
2024-06-18 02:05:00,SystemResetWarning,0813.7,5.01,000.00,029.1,028.6,000.0,037.1,031.1,034.8,0000.0,0029.73,0008.08,0006.06
2024-06-18 02:06:00,SystemResetWarning,0813.7,5.01,000.00,029.2,028.8,000.0,037.2,031.2,034.4,0000.0,0030.39,0008.08,0006.07
2024-06-18 02:07:00,SystemResetWarning,0813.7,4.98,000.00,029.3,029.0,000.0,037.3,031.2,034.6,0000.0,0029.70,0008.07,0006.07
2024-06-18 02:08:00,SystemResetWarning,0813.7,4.99,000.00,029.2,027.7,000.0,037.3,030.6,034.5,0000.0,0029.22,0008.04,0006.06
2024-06-18 02:09:00,SystemResetWarning,0813.7,5.01,000.00,028.9,025.7,000.0,037.4,029.6,035.2,0000.0,0030.51,0008.05,0006.06
2024-06-18 02:10:00,SystemResetWarning,0813.8,5.00,000.00,028.6,025.4,000.0,037.3,029.4,035.5,0000.0,0030.04,0007.99,0006.08
2024-06-18 02:11:00,SystemResetWarning,0813.6,5.01,000.00,028.5,025.8,000.0,037.2,029.6,035.6,0000.0,0031.43,0007.99,0006.10
2024-06-18 02:12:00,SystemResetWarning,0813.6,5.00,000.00,028.5,026.3,000.0,037.2,029.9,035.6,0000.0,0030.47,0008.02,0006.11
2024-06-18 02:13:00,SystemResetWarning,0813.7,5.00,000.00,028.6,026.8,000.0,037.1,030.2,034.9,0000.0,0030.45,0008.03,0006.12
2024-06-18 02:14:00,SystemResetWarning,0813.7,5.00,000.00,028.6,027.3,000.0,037.1,030.4,034.9,0000.0,0030.20,0008.06,0006.11
2024-06-18 02:15:00,SystemResetWarning,0813.7,5.00,000.00,028.7,027.6,000.0,037.1,030.5,034.9,0000.0,0030.16,0008.07,0006.11
2024-06-18 02:16:00,SystemResetWarning,0813.7,5.00,000.00,028.8,028.0,000.0,037.1,030.7,034.8,0000.0,0030.21,0008.04,0006.12
2024-06-18 02:17:00,SystemResetWarning,0813.7,5.00,000.00,028.9,028.2,000.0,037.1,030.8,034.7,0000.0,0029.84,0008.04,0006.12
2024-06-18 02:18:00,SystemResetWarning,0813.7,5.00,000.00,029.0,028.5,000.0,037.1,031.0,034.4,0000.0,0031.00,0008.06,0006.12
2024-06-18 02:19:00,SystemResetWarning,0813.8,5.00,000.00,029.1,028.7,000.0,037.2,031.1,034.0,0000.0,0033.66,0008.08,0006.11
2024-06-18 02:20:00,SystemResetWarning,0813.9,5.00,000.00,029.2,028.9,000.0,037.2,031.2,033.8,0000.0,0032.73,0008.07,0006.12
2024-06-18 02:21:00,SystemResetWarning,0814.0,4.99,000.00,029.3,028.3,000.0,037.3,030.9,034.1,0000.0,0034.24,0008.11,0006.11
2024-06-18 02:22:00,SystemResetWarning,0813.7,5.00,000.00,029.0,026.2,000.0,037.4,029.9,035.1,0000.0,0033.65,0008.17,0006.09
2024-06-18 02:23:00,SystemResetWarning,0813.7,5.02,000.00,028.6,025.2,000.0,037.3,029.4,035.8,0000.0,0032.83,0008.14,0006.09
2024-06-18 02:24:00,SystemResetWarning,0813.7,5.00,000.00,028.5,025.4,000.0,037.3,029.4,036.0,0000.0,0031.19,0008.10,0006.10
2024-06-18 02:25:00,SystemResetWarning,0813.7,5.01,000.00,028.4,025.9,000.0,037.1,029.7,035.7,0000.0,0030.19,0008.07,0006.11
2024-06-18 02:26:00,SystemResetWarning,0813.8,5.00,000.00,028.5,026.5,000.0,037.1,030.0,035.6,0000.2,0030.94,0008.07,0006.11
2024-06-18 02:27:00,SystemResetWarning,0813.9,5.01,000.00,028.6,026.9,000.0,037.0,030.2,035.8,0002.9,0030.80,0008.13,0006.13
2024-06-18 02:28:00,SystemResetWarning,0813.9,4.99,000.00,028.6,027.4,000.0,037.0,030.4,035.5,0000.0,0030.33,0008.16,0006.13
2024-06-18 02:29:00,SystemResetWarning,0813.9,5.01,000.00,028.7,027.7,000.0,037.0,030.6,035.3,0000.0,0029.66,0008.23,0006.16
2024-06-18 02:30:00,SystemResetWarning,0813.9,5.00,000.00,028.8,028.0,000.0,037.0,030.7,035.1,0000.0,0027.35,0008.29,0006.19
2024-06-18 02:31:00,SystemResetWarning,0814.0,4.99,000.00,028.9,028.3,000.0,037.1,030.9,035.2,0000.0,0026.14,0008.28,0006.21
2024-06-18 02:32:00,SystemResetWarning,0813.9,4.99,000.00,029.0,028.5,000.0,037.1,031.0,036.7,0000.0,0024.88,0008.27,0006.25
2024-06-18 02:33:00,SystemResetWarning,0813.9,4.99,000.00,029.1,028.7,000.0,037.2,031.1,036.5,0000.0,0023.28,0008.30,0006.30
2024-06-18 02:34:00,SystemResetWarning,0813.9,5.01,000.00,029.2,028.8,000.0,037.2,031.2,035.9,0000.0,0023.75,0008.39,0006.36
2024-06-18 02:35:00,SystemResetWarning,0813.9,5.01,000.00,029.3,029.0,000.0,037.2,031.3,035.5,0000.0,0025.11,0008.50,0006.41
2024-06-18 02:36:00,SystemResetWarning,0813.9,4.98,000.00,029.3,028.3,000.0,037.3,030.9,035.0,0000.0,0026.69,0008.50,0006.45
2024-06-18 02:37:00,SystemResetWarning,0813.9,5.00,000.00,029.0,026.1,000.0,037.4,029.8,036.1,0000.0,0026.24,0008.48,0006.46
2024-06-18 02:38:00,SystemResetWarning,0813.9,5.00,000.00,028.7,025.4,000.0,037.4,029.4,036.7,0000.0,0026.71,0008.53,0006.49
2024-06-18 02:39:00,SystemResetWarning,0813.9,5.01,000.00,028.5,025.6,000.0,037.3,029.5,035.8,0000.0,0027.02,0008.62,0006.53
2024-06-18 02:40:00,SystemResetWarning,0814.0,4.99,000.00,028.5,026.1,000.0,037.2,029.8,036.8,0000.0,0026.29,0008.60,0006.55
2024-06-18 02:41:00,SystemResetWarning,0813.9,5.00,000.00,028.5,026.6,000.0,037.1,030.1,037.0,0001.7,0026.79,0008.58,0006.57
2024-06-18 02:42:00,SystemResetWarning,0813.9,5.01,000.00,028.6,027.1,000.0,037.1,030.3,032.9,0002.5,0027.98,0008.70,0006.60
2024-06-18 02:43:00,SystemResetWarning,0813.9,4.99,000.00,028.7,027.5,000.0,037.1,030.5,034.9,0002.3,0029.90,0008.69,0006.56
2024-06-18 02:44:00,SystemResetWarning,0813.9,5.00,000.00,028.8,027.8,000.0,037.1,030.6,034.5,0001.9,0030.89,0008.75,0006.55
2024-06-18 02:45:00,SystemResetWarning,0813.9,5.01,000.00,028.8,028.1,000.0,037.1,030.7,023.3,0002.4,0031.11,0008.68,0006.50
2024-06-18 02:46:00,SystemResetWarning,0813.9,4.99,000.00,028.9,028.4,000.0,037.1,030.9,019.5,0001.5,0031.95,0008.38,0006.26
2024-06-18 02:47:00,SystemResetWarning,0813.9,5.00,000.00,029.0,028.6,000.0,037.2,031.0,018.6,0000.0,0033.87,0008.05,0005.99
2024-06-18 02:48:00,SystemResetWarning,0813.9,5.00,000.00,029.1,028.7,000.0,037.2,031.1,018.9,0000.0,0033.76,0007.77,0005.74
2024-06-18 02:49:00,SystemResetWarning,0813.9,5.00,000.00,029.2,028.9,000.0,037.3,031.2,017.0,0000.0,0032.94,0007.40,0005.48
2024-06-18 02:50:00,SystemResetWarning,0813.9,5.00,000.00,029.3,029.0,000.0,037.3,031.3,014.6,0000.0,0033.60,0006.96,0005.17
2024-06-18 02:51:00,SystemResetWarning,0813.9,5.00,000.00,029.4,029.0,000.0,037.4,031.3,013.7,0000.0,0034.08,0006.55,0004.85
2024-06-18 02:52:00,SystemResetWarning,0813.9,4.99,000.00,029.2,027.2,000.0,037.4,030.4,012.9,0000.0,0034.00,0006.12,0004.50
2024-06-18 02:53:00,SystemResetWarning,0813.9,5.02,000.00,028.9,026.2,000.0,037.5,029.9,012.8,0000.0,0033.84,0005.71,0004.20
2024-06-18 02:54:00,SystemResetWarning,0813.9,5.00,000.00,028.8,026.5,000.0,037.4,030.0,013.5,0000.0,0034.27,0005.28,0003.89
2024-06-18 02:55:00,SystemResetWarning,0813.9,4.99,000.00,028.8,026.9,000.0,037.3,030.2,012.7,0000.0,0033.34,0004.86,0003.57
2024-06-18 02:56:00,SystemResetWarning,0813.9,5.00,000.00,028.9,027.3,000.0,037.3,030.5,012.4,0000.0,0031.77,0004.43,0003.25
2024-06-18 02:57:00,SystemResetWarning,0813.9,5.01,000.00,029.0,027.7,000.0,037.3,030.7,012.6,0000.0,0031.64,0004.15,0003.03
2024-06-18 02:58:00,SystemResetWarning,0813.9,5.01,000.00,029.0,028.0,000.0,037.3,030.8,012.1,0000.0,0028.67,0004.04,0002.88
2024-06-18 02:59:00,SystemResetWarning,0813.8,5.00,000.00,029.1,028.3,000.0,037.3,030.9,011.5,0000.0,0026.80,0003.90,0002.69
